| time (UTC) | temp F | wind direction | speed knots | gust knots | rain 1hr in | rain 24hr in | rain mn in | humidity % | barometer mb |
| 20260505102217 | 49 | 148 | 0.0 | 0.0 | 0.00 | 0.00 | 0.00 | 99 | 1013.0 |
| 20260505101716 | 49 | 148 | 0.0 | 0.0 | 0.00 | 0.00 | 0.00 | 99 | 1012.9 |
| 20260505101212 | 49 | 148 | 0.0 | 0.0 | 0.00 | 0.00 | 0.00 | 99 | 1012.7 |
| 20260505100708 | 49 | 142 | 0.0 | 0.0 | 0.00 | 0.00 | 0.00 | 99 | 1012.8 |
| 20260505100205 | 49 | 142 | 0.0 | 0.0 | 0.00 | 0.00 | 0.00 | 99 | 1012.5 |
| 20260505095700 | 49 | 123 | 0.0 | 0.0 | 0.00 | 0.00 | 0.00 | 99 | 1012.7 |
| 20260505095159 | 49 | 123 | 0.0 | 0.0 | 0.00 | 0.00 | 0.00 | 98 | 1012.5 |
| 20260505094654 | 49 | 123 | 0.0 | 0.0 | 0.00 | 0.00 | 0.00 | 98 | 1012.4 |
| 20260505094151 | 49 | 123 | 0.0 | 0.0 | 0.00 | 0.00 | 0.00 | 98 | 1012.4 |
| 20260505093647 | 49 | 122 | 0.0 | 0.0 | 0.00 | 0.00 | 0.00 | 98 | 1012.4 |
| 20260505093145 | 49 | 165 | 0.0 | 0.9 | 0.00 | 0.00 | 0.00 | 98 | 1012.2 |
| 20260505092641 | 49 | 165 | 0.9 | 0.9 | 0.00 | 0.00 | 0.00 | 98 | 1012.3 |
| 20260505092140 | 49 | 165 | 0.0 | 0.0 | 0.00 | 0.00 | 0.00 | 98 | 1012.2 |
| 20260505091637 | 49 | 165 | 0.0 | 0.0 | 0.00 | 0.00 | 0.00 | 98 | 1012.3 |
| 20260505091135 | 49 | 165 | 0.0 | 0.0 | 0.00 | 0.00 | 0.00 | 98 | 1012.3 |
| 20260505090632 | 49 | 165 | 0.0 | 0.9 | 0.00 | 0.00 | 0.00 | 98 | 1012.2 |
| 20260505090131 | 50 | 165 | 0.0 | 0.9 | 0.00 | 0.00 | 0.00 | 98 | 1012.1 |
| 20260505085627 | 49 | 165 | 0.0 | 0.0 | 0.00 | 0.00 | 0.00 | 98 | 1012.0 |
| 20260505085126 | 49 | 165 | 0.0 | 0.0 | 0.00 | 0.00 | 0.00 | 98 | 1012.0 |
| 20260505084623 | 49 | 165 | 0.0 | 0.0 | 0.00 | 0.00 | 0.00 | 97 | 1012.1 |
| 20260505084121 | 49 | 165 | 0.0 | 0.0 | 0.00 | 0.00 | 0.00 | 97 | 1012.1 |
| 20260505083619 | 50 | 165 | 0.0 | 0.9 | 0.00 | 0.00 | 0.00 | 97 | 1012.1 |
| 20260505083115 | 50 | 165 | 0.0 | 0.9 | 0.00 | 0.00 | 0.00 | 97 | 1012.2 |
| 20260505082610 | 50 | 165 | 0.0 | 0.9 | 0.00 | 0.00 | 0.00 | 97 | 1011.9 |
| 20260505082108 | 50 | 165 | 0.0 | 0.0 | 0.00 | 0.00 | 0.00 | 97 | 1012.0 |
| 20260505081604 | 50 | 165 | 0.0 | 0.9 | 0.00 | 0.00 | 0.00 | 96 | 1012.2 |
| 20260505081101 | 50 | 165 | 0.0 | 0.0 | 0.00 | 0.00 | 0.00 | 96 | 1012.0 |
| 20260505080557 | 50 | 165 | 0.0 | 0.0 | 0.00 | 0.00 | 0.00 | 97 | 1011.9 |
| 20260505080054 | 50 | 165 | 0.0 | 0.0 | 0.00 | 0.00 | 0.00 | 97 | 1011.9 |
| 20260505075550 | 50 | 165 | 0.0 | 0.0 | 0.00 | 0.00 | 0.00 | 96 | 1011.9 |
| 20260505075047 | 50 | 165 | 0.0 | 0.0 | 0.00 | 0.00 | 0.00 | 96 | 1011.9 |
| 20260505074544 | 50 | 165 | 0.0 | 0.0 | 0.00 | 0.00 | 0.00 | 97 | 1012.1 |
| 20260505074041 | 50 | 165 | 0.0 | 0.0 | 0.00 | 0.00 | 0.00 | 97 | 1011.8 |
| 20260505073538 | 50 | 165 | 0.0 | 0.0 | 0.00 | 0.00 | 0.00 | 96 | 1011.8 |
| 20260505073037 | 50 | 165 | 0.0 | 0.9 | 0.00 | 0.00 | 0.00 | 96 | 1011.9 |
| 20260505072532 | 50 | 167 | 0.0 | 0.9 | 0.00 | 0.00 | 0.00 | 96 | 1011.8 |
| 20260505072029 | 51 | 167 | 0.0 | 0.0 | 0.00 | 0.00 | 0.00 | 96 | 1011.6 |
| 20260505071524 | 50 | 167 | 0.0 | 0.0 | 0.00 | 0.00 | 0.00 | 96 | 1011.8 |
| 20260505071023 | 50 | 167 | 0.0 | 0.0 | 0.00 | 0.00 | 0.00 | 96 | 1011.8 |
| 20260505070520 | 51 | 167 | 0.0 | 0.9 | 0.00 | 0.00 | 0.00 | 96 | 1012.1 |
| 20260505070016 | 50 | 168 | 0.9 | 0.9 | 0.00 | 0.00 | 0.00 | 96 | 1012.0 |
| 20260505065512 | 51 | 168 | 0.0 | 0.0 | 0.00 | 0.00 | 0.00 | 96 | 1012.0 |
| 20260505065008 | 50 | 168 | 0.0 | 0.0 | 0.00 | 0.00 | 0.00 | 96 | 1011.8 |
| 20260505064505 | 50 | 168 | 0.0 | 0.0 | 0.00 | 0.00 | 0.00 | 96 | 1011.9 |
| 20260505064004 | 51 | 168 | 0.0 | 0.9 | 0.00 | 0.00 | 0.00 | 96 | 1012.0 |
| 20260505063500 | 51 | 168 | 0.0 | 0.0 | 0.00 | 0.00 | 0.00 | 96 | 1012.0 |
| 20260505062956 | 51 | 169 | 0.0 | 0.0 | 0.00 | 0.00 | 0.00 | 96 | 1011.9 |
| 20260505062453 | 51 | 168 | 0.0 | 0.0 | 0.00 | 0.00 | 0.00 | 96 | 1012.1 |
| 20260505061950 | 51 | 168 | 0.0 | 0.0 | 0.00 | 0.00 | 0.00 | 96 | 1011.9 |
| 20260505061448 | 51 | 168 | 0.0 | 0.9 | 0.00 | 0.00 | 0.00 | 96 | 1011.9 |
| 20260505060946 | 51 | 168 | 0.0 | 0.9 | 0.00 | 0.00 | 0.00 | 96 | 1012.1 |
| 20260505060443 | 51 | 168 | 0.0 | 0.0 | 0.00 | 0.00 | 0.00 | 96 | 1012.1 |
| 20260505055939 | 51 | 169 | 0.9 | 0.9 | 0.00 | 0.00 | 0.00 | 96 | 1011.9 |
| 20260505055435 | 51 | 168 | 0.0 | 0.9 | 0.00 | 0.00 | 0.00 | 96 | 1012.0 |
| 20260505054932 | 51 | 169 | 0.0 | 0.9 | 0.00 | 0.00 | 0.00 | 96 | 1012.0 |
| 20260505054429 | 51 | 168 | 0.0 | 0.0 | 0.00 | 0.00 | 0.00 | 96 | 1012.0 |
| 20260505053927 | 51 | 168 | 0.0 | 0.0 | 0.00 | 0.00 | 0.00 | 96 | 1011.9 |
| 20260505053424 | 51 | 168 | 0.0 | 0.9 | 0.00 | 0.00 | 0.00 | 96 | 1011.9 |
| 20260505052921 | 51 | 168 | 0.0 | 0.0 | 0.00 | 0.00 | 0.00 | 96 | 1012.0 |
| 20260505052418 | 51 | 168 | 0.0 | 0.0 | 0.00 | 0.00 | 0.00 | 96 | 1011.8 |
| 20260505051915 | 51 | 168 | 0.0 | 0.0 | 0.00 | 0.00 | 0.00 | 96 | 1011.9 |
| 20260505051412 | 51 | 168 | 0.0 | 0.0 | 0.00 | 0.00 | 0.00 | 96 | 1011.9 |
| 20260505050910 | 51 | 168 | 0.0 | 0.0 | 0.00 | 0.00 | 0.00 | 97 | 1011.7 |
| 20260505050408 | 51 | 168 | 0.0 | 0.0 | 0.00 | 0.00 | 0.00 | 97 | 1011.7 |
| 20260505041336 | 52 | 168 | 0.0 | 0.0 | 0.00 | 0.00 | 0.00 | 96 | 1011.2 |
| 20260505040833 | 53 | 168 | 0.0 | 0.0 | 0.00 | 0.00 | 0.00 | 96 | 1011.1 |
| 20260505040330 | 53 | 168 | 0.0 | 0.0 | 0.00 | 0.00 | 0.00 | 96 | 1011.0 |
| 20260505035827 | 53 | 168 | 0.0 | 0.0 | 0.00 | 0.01 | 0.01 | 96 | 1011.0 |
| 20260505035322 | 53 | 168 | 0.0 | 0.0 | 0.00 | 0.01 | 0.01 | 96 | 1010.9 |
| 20260505034820 | 53 | 168 | 0.0 | 0.0 | 0.00 | 0.01 | 0.01 | 96 | 1011.0 |
| 20260505034316 | 53 | 168 | 0.0 | 0.0 | 0.00 | 0.01 | 0.01 | 96 | 1010.9 |
| 20260505033814 | 53 | 168 | 0.0 | 0.0 | 0.00 | 0.01 | 0.01 | 96 | 1010.9 |
| 20260505033310 | 53 | 168 | 0.0 | 0.0 | 0.00 | 0.01 | 0.01 | 96 | 1010.9 |
| 20260505032809 | 53 | 168 | 0.0 | 0.0 | 0.00 | 0.01 | 0.01 | 96 | 1011.1 |
| 20260505032305 | 53 | 168 | 0.0 | 0.0 | 0.00 | 0.01 | 0.01 | 96 | 1010.7 |
| 20260505031803 | 53 | 168 | 0.0 | 0.0 | 0.00 | 0.01 | 0.01 | 96 | 1011.1 |
| 20260505031259 | 53 | 168 | 0.0 | 0.0 | 0.00 | 0.01 | 0.01 | 96 | 1011.0 |
| 20260505030757 | 53 | 168 | 0.0 | 0.0 | 0.00 | 0.01 | 0.01 | 96 | 1011.0 |
| 20260505030252 | 53 | 168 | 0.0 | 0.0 | 0.00 | 0.01 | 0.01 | 95 | 1010.9 |
| 20260505025747 | 53 | 168 | 0.0 | 0.0 | 0.00 | 0.01 | 0.01 | 95 | 1010.9 |
| 20260505025245 | 53 | 168 | 0.0 | 0.0 | 0.00 | 0.01 | 0.01 | 95 | 1010.8 |
| 20260505024743 | 53 | 168 | 0.0 | 0.0 | 0.00 | 0.01 | 0.01 | 95 | 1010.8 |
| 20260505024240 | 54 | 168 | 0.0 | 0.0 | 0.00 | 0.01 | 0.01 | 95 | 1011.0 |
| 20260505023738 | 54 | 168 | 0.0 | 0.0 | 0.00 | 0.01 | 0.01 | 95 | 1010.7 |
| 20260505023235 | 54 | 168 | 0.0 | 0.0 | 0.00 | 0.01 | 0.01 | 94 | 1010.9 |
| 20260505022732 | 54 | 168 | 0.0 | 0.0 | 0.00 | 0.01 | 0.01 | 94 | 1010.7 |
| 20260505022229 | 54 | 168 | 0.0 | 0.0 | 0.00 | 0.01 | 0.01 | 93 | 1010.4 |
| 20260505021725 | 55 | 168 | 0.0 | 0.0 | 0.00 | 0.01 | 0.01 | 93 | 1010.7 |
| 20260505021223 | 55 | 168 | 0.0 | 0.0 | 0.00 | 0.01 | 0.01 | 92 | 1010.7 |
| 20260505020718 | 55 | 168 | 0.0 | 0.0 | 0.00 | 0.01 | 0.01 | 92 | 1010.8 |
| 20260505020214 | 55 | 168 | 0.0 | 0.0 | 0.00 | 0.01 | 0.01 | 91 | 1010.8 |
| 20260505015712 | 56 | 168 | 0.0 | 0.0 | 0.00 | 0.01 | 0.01 | 91 | 1010.7 |
| 20260505015208 | 56 | 168 | 0.0 | 0.0 | 0.00 | 0.01 | 0.01 | 91 | 1010.7 |
| 20260505014705 | 56 | 168 | 0.0 | 0.0 | 0.00 | 0.01 | 0.01 | 90 | 1010.4 |
| 20260505014202 | 56 | 168 | 0.0 | 0.0 | 0.00 | 0.01 | 0.01 | 90 | 1010.5 |
| 20260505013659 | 56 | 168 | 0.0 | 0.0 | 0.00 | 0.01 | 0.01 | 89 | 1010.7 |
| 20260505013156 | 57 | 169 | 0.0 | 0.0 | 0.00 | 0.01 | 0.01 | 89 | 1010.7 |
| 20260505012655 | 57 | 168 | 0.0 | 0.0 | 0.00 | 0.01 | 0.01 | 88 | 1010.5 |
| 20260505012152 | 57 | 168 | 0.0 | 0.0 | 0.00 | 0.01 | 0.01 | 87 | 1010.4 |
| 20260505011652 | 58 | 169 | 0.0 | 0.9 | 0.00 | 0.01 | 0.01 | 87 | 1010.5 |
| 20260505011150 | 58 | 168 | 0.0 | 0.9 | 0.00 | 0.01 | 0.01 | 87 | 1010.7 |
| 20260505010645 | 58 | 168 | 0.0 | 0.0 | 0.00 | 0.01 | 0.01 | 86 | 1010.5 |
| 20260505010142 | 59 | 168 | 0.0 | 0.0 | 0.00 | 0.01 | 0.01 | 86 | 1010.5 |
| 20260505005638 | 59 | 168 | 0.0 | 0.9 | 0.00 | 0.01 | 0.01 | 85 | 1010.4 |
| 20260505005135 | 60 | 169 | 0.0 | 0.9 | 0.00 | 0.01 | 0.01 | 85 | 1010.5 |
| 20260505004632 | 60 | 168 | 0.9 | 0.9 | 0.00 | 0.01 | 0.01 | 85 | 1010.5 |
| 20260505004129 | 60 | 168 | 0.0 | 0.0 | 0.00 | 0.01 | 0.01 | 84 | 1010.2 |
| 20260505003626 | 61 | 168 | 0.0 | 0.0 | 0.00 | 0.01 | 0.01 | 82 | 1010.2 |
| 20260505003124 | 62 | 168 | 0.0 | 0.0 | 0.00 | 0.01 | 0.01 | 82 | 1010.3 |
| 20260505002619 | 62 | 168 | 0.0 | 0.0 | 0.00 | 0.01 | 0.01 | 81 | 1010.2 |
| 20260505002118 | 62 | 168 | 0.0 | 0.9 | 0.00 | 0.01 | 0.01 | 80 | 1010.4 |
| 20260505001614 | 63 | 168 | 0.0 | 0.0 | 0.00 | 0.01 | 0.01 | 79 | 1010.5 |
| 20260505001112 | 64 | 169 | 0.9 | 0.9 | 0.00 | 0.01 | 0.01 | 77 | 1010.4 |
| 20260505000609 | 64 | 163 | 0.0 | 0.9 | 0.00 | 0.01 | 0.01 | 76 | 1010.4 |
| 20260505000107 | 65 | 163 | 0.0 | 0.9 | 0.00 | 0.01 | 0.01 | 75 | 1010.4 |
| 20260504235603 | 65 | 163 | 0.0 | 0.0 | 0.00 | 0.01 | 0.01 | 74 | 1010.3 |
| 20260504235100 | 66 | 163 | 0.0 | 0.9 | 0.00 | 0.01 | 0.01 | 72 | 1010.4 |
| 20260504234557 | 67 | 200 | 0.0 | 0.0 | 0.00 | 0.01 | 0.01 | 71 | 1010.4 |
| 20260504234054 | 67 | 199 | 0.0 | 0.0 | 0.00 | 0.01 | 0.01 | 69 | 1010.3 |
| 20260504233549 | 69 | 81 | 0.0 | 0.0 | 0.00 | 0.01 | 0.01 | 64 | 1010.0 |
| 20260504233046 | 70 | 80 | 0.0 | 0.9 | 0.00 | 0.01 | 0.01 | 63 | 1010.1 |
| 20260504232543 | 72 | 144 | 0.0 | 0.9 | 0.00 | 0.01 | 0.01 | 55 | 1010.0 |
| 20260504232041 | 71 | 218 | 0.0 | 2.6 | 0.00 | 0.01 | 0.01 | 60 | 1010.1 |
| 20260504231537 | 73 | 23 | 0.9 | 3.5 | 0.00 | 0.01 | 0.01 | 55 | 1010.1 |
| 20260504231033 | 74 | 167 | 0.9 | 1.7 | 0.00 | 0.01 | 0.01 | 53 | 1010.0 |
| 20260504230530 | 73 | 71 | 1.7 | 1.7 | 0.00 | 0.01 | 0.01 | 53 | 1010.0 |
| 20260504230029 | 74 | 73 | 0.9 | 1.7 | 0.00 | 0.01 | 0.01 | 51 | 1009.9 |
| 20260504225525 | 74 | 96 | 1.7 | 2.6 | 0.00 | 0.01 | 0.01 | 49 | 1010.0 |
| 20260504225022 | 74 | 89 | 0.9 | 2.6 | 0.00 | 0.01 | 0.01 | 50 | 1010.2 |
| 20260504224519 | 74 | 133 | 0.0 | 1.7 | 0.00 | 0.01 | 0.01 | 53 | 1010.4 |
| 20260504224016 | 74 | 102 | 0.9 | 1.7 | 0.00 | 0.01 | 0.01 | 47 | 1010.3 |
| 20260504223513 | 74 | 236 | 0.0 | 0.9 | 0.00 | 0.01 | 0.01 | 52 | 1010.2 |
| 20260504223009 | 74 | 98 | 0.0 | 2.6 | 0.00 | 0.01 | 0.01 | 46 | 1010.4 |
| 20260504222506 | 74 | 124 | 0.0 | 0.0 | 0.00 | 0.01 | 0.01 | 49 | 1010.4 |
| 20260504222003 | 75 | 22 | 0.9 | 0.9 | 0.00 | 0.01 | 0.01 | 50 | 1010.7 |
| 20260504221500 | 75 | 103 | 0.9 | 0.9 | 0.00 | 0.01 | 0.01 | 47 | 1010.7 |
| 20260504220957 | 76 | 68 | 1.7 | 1.7 | 0.00 | 0.01 | 0.01 | 46 | 1010.4 |
| 20260504220453 | 76 | 120 | 3.5 | 7.8 | 0.00 | 0.01 | 0.01 | 44 | 1010.5 |
| 20260504215950 | 76 | 116 | 4.3 | 8.7 | 0.00 | 0.01 | 0.01 | 43 | 1010.3 |
| 20260504215447 | 77 | 77 | 8.7 | 11.3 | 0.00 | 0.01 | 0.01 | 41 | 1010.4 |
| 20260504214944 | 76 | 127 | 0.9 | 3.5 | 0.00 | 0.01 | 0.01 | 43 | 1010.4 |
| 20260504214440 | 76 | 106 | 4.3 | 6.1 | 0.00 | 0.01 | 0.01 | 44 | 1010.2 |
| 20260504213937 | 76 | 199 | 0.0 | 0.9 | 0.00 | 0.01 | 0.01 | 50 | 1010.2 |
| 20260504213433 | 77 | 98 | 0.9 | 6.1 | 0.00 | 0.01 | 0.01 | 43 | 1010.3 |
| 20260504212931 | 78 | 113 | 0.9 | 6.1 | 0.00 | 0.01 | 0.01 | 45 | 1010.4 |
| 20260504212426 | 78 | 131 | 3.5 | 7.8 | 0.00 | 0.01 | 0.01 | 45 | 1010.5 |
| 20260504211924 | 78 | 102 | 0.0 | 5.2 | 0.00 | 0.01 | 0.01 | 48 | 1010.3 |
| 20260504211420 | 78 | 137 | 0.9 | 1.7 | 0.00 | 0.01 | 0.01 | 49 | 1010.5 |
| 20260504210918 | 77 | 85 | 2.6 | 6.1 | 0.00 | 0.01 | 0.01 | 47 | 1010.5 |
| 20260504210414 | 77 | 257 | 0.0 | 2.6 | 0.00 | 0.01 | 0.01 | 48 | 1010.7 |
| 20260504205912 | 78 | 80 | 1.7 | 1.7 | 0.00 | 0.01 | 0.01 | 47 | 1010.7 |
| 20260504205409 | 76 | 103 | 2.6 | 3.5 | 0.00 | 0.01 | 0.01 | 48 | 1010.8 |
| 20260504204907 | 76 | 91 | 2.6 | 6.1 | 0.00 | 0.01 | 0.01 | 48 | 1010.9 |
| 20260504204405 | 76 | 110 | 0.9 | 2.6 | 0.00 | 0.01 | 0.01 | 51 | 1011.0 |
| 20260504203905 | 75 | 245 | 1.7 | 1.7 | 0.00 | 0.01 | 0.01 | 51 | 1011.1 |
| 20260504203401 | 75 | 80 | 1.7 | 2.6 | 0.00 | 0.01 | 0.01 | 50 | 1011.1 |
| 20260504202857 | 75 | 131 | 1.7 | 3.5 | 0.00 | 0.01 | 0.01 | 53 | 1011.3 |
| 20260504202354 | 75 | 189 | 0.9 | 7.8 | 0.00 | 0.01 | 0.01 | 53 | 1011.3 |
| 20260504201850 | 74 | 122 | 1.7 | 2.6 | 0.00 | 0.01 | 0.01 | 54 | 1011.4 |
| 20260504201348 | 74 | 98 | 1.7 | 3.5 | 0.00 | 0.01 | 0.01 | 55 | 1011.4 |
| 20260504200845 | 74 | 76 | 3.5 | 3.5 | 0.00 | 0.01 | 0.01 | 52 | 1011.6 |
| 20260504200342 | 73 | 49 | 1.7 | 3.5 | 0.00 | 0.01 | 0.01 | 54 | 1011.6 |
| 20260504195838 | 72 | 92 | 3.5 | 6.1 | 0.00 | 0.01 | 0.01 | 54 | 1011.8 |
| 20260504195334 | 72 | 169 | 4.3 | 7.0 | 0.00 | 0.01 | 0.01 | 53 | 1011.9 |
| 20260504194831 | 72 | 87 | 1.7 | 5.2 | 0.00 | 0.01 | 0.01 | 54 | 1011.9 |
| 20260504194327 | 72 | 161 | 1.7 | 3.5 | 0.00 | 0.01 | 0.01 | 53 | 1012.2 |
| 20260504193823 | 71 | 111 | 1.7 | 7.0 | 0.00 | 0.01 | 0.01 | 54 | 1012.0 |
| 20260504193321 | 71 | 99 | 0.9 | 2.6 | 0.00 | 0.01 | 0.01 | 52 | 1012.2 |
| 20260504192819 | 71 | 73 | 1.7 | 3.5 | 0.00 | 0.01 | 0.01 | 54 | 1012.3 |
| 20260504192317 | 70 | 222 | 2.6 | 8.7 | 0.00 | 0.01 | 0.01 | 58 | 1012.3 |
| 20260504191815 | 70 | 173 | 1.7 | 6.1 | 0.00 | 0.01 | 0.01 | 58 | 1012.5 |
| 20260504191312 | 69 | 191 | 1.7 | 2.6 | 0.00 | 0.01 | 0.01 | 60 | 1012.5 |
| 20260504190808 | 67 | 231 | 0.0 | 0.9 | 0.00 | 0.01 | 0.01 | 76 | 1012.5 |
| 20260504190304 | 66 | 230 | 0.0 | 0.9 | 0.07 | 0.01 | 0.01 | 78 | 1012.9 |
| 20260504185800 | 64 | 99 | 0.9 | 0.9 | 0.07 | 0.01 | 0.01 | 83 | 1013.5 |
| 20260504185258 | 64 | 101 | 0.0 | 0.9 | 0.00 | 0.00 | 0.00 | 80 | 1013.2 |
| 20260504184754 | 66 | 87 | 0.9 | 2.6 | 0.00 | 0.00 | 0.00 | 69 | 1013.6 |
| 20260504184249 | 69 | 137 | 1.7 | 6.1 | 0.00 | 0.00 | 0.00 | 56 | 1013.6 |
| 20260504183745 | 70 | 145 | 0.0 | 7.8 | 0.00 | 0.00 | 0.00 | 50 | 1012.9 |
| 20260504183243 | 71 | 89 | 1.7 | 3.5 | 0.00 | 0.00 | 0.00 | 50 | 1012.8 |
| 20260504182741 | 71 | 91 | 1.7 | 3.5 | 0.00 | 0.00 | 0.00 | 49 | 1012.7 |
| 20260504182238 | 71 | 86 | 1.7 | 6.1 | 0.00 | 0.00 | 0.00 | 50 | 1012.5 |
| 20260504181735 | 72 | 95 | 3.5 | 7.0 | 0.00 | 0.00 | 0.00 | 48 | 1012.4 |
| 20260504181232 | 72 | 209 | 0.9 | 7.8 | 0.00 | 0.00 | 0.00 | 48 | 1012.4 |
| 20260504180731 | 73 | 86 | 5.2 | 7.8 | 0.00 | 0.00 | 0.00 | 47 | 1012.2 |
| 20260504180230 | 72 | 85 | 3.5 | 7.8 | 0.00 | 0.00 | 0.00 | 48 | 1012.4 |
| 20260504175727 | 73 | 82 | 3.5 | 5.2 | 0.00 | 0.00 | 0.00 | 47 | 1012.3 |
| 20260504175223 | 72 | 88 | 2.6 | 7.0 | 0.00 | 0.00 | 0.00 | 47 | 1012.3 |
| 20260504174722 | 71 | 71 | 0.9 | 5.2 | 0.00 | 0.00 | 0.00 | 49 | 1012.6 |
| 20260504174220 | 72 | 117 | 5.2 | 7.0 | 0.00 | 0.00 | 0.00 | 48 | 1012.5 |
| 20260504173715 | 70 | 189 | 2.6 | 11.3 | 0.00 | 0.00 | 0.00 | 50 | 1012.4 |
| 20260504173213 | 69 | 163 | 3.5 | 8.7 | 0.00 | 0.00 | 0.00 | 55 | 1012.5 |
| 20260504172709 | 69 | 120 | 5.2 | 7.0 | 0.00 | 0.00 | 0.00 | 51 | 1012.7 |
| 20260504172205 | 71 | 150 | 1.7 | 7.8 | 0.00 | 0.00 | 0.00 | 49 | 1012.8 |
| 20260504171702 | 70 | 94 | 2.6 | 5.2 | 0.00 | 0.00 | 0.00 | 53 | 1012.7 |
| 20260504171159 | 70 | 262 | 1.7 | 3.5 | 0.00 | 0.00 | 0.00 | 51 | 1012.7 |
| 20260504170655 | 70 | 260 | 1.7 | 6.1 | 0.00 | 0.00 | 0.00 | 54 | 1012.8 |
| 20260504170153 | 69 | 71 | 5.2 | 6.1 | 0.00 | 0.00 | 0.00 | 57 | 1012.9 |
| 20260504160112 | 64 | 183 | 1.7 | 5.2 | 0.00 | 0.00 | 0.00 | 65 | 1014.4 |
| 20260504151045 | 64 | 78 | 2.6 | 7.8 | 0.00 | 0.00 | 0.00 | 64 | 1015.1 |
| 20260504150542 | 63 | 107 | 3.5 | 6.1 | 0.00 | 0.00 | 0.00 | 65 | 1015.3 |
| 20260504141008 | 58 | 102 | 1.7 | 2.6 | 0.00 | 0.00 | 0.00 | 73 | 1015.8 |
| 20260504140505 | 57 | 60 | 0.9 | 1.7 | 0.00 | 0.00 | 0.00 | 73 | 1016.0 |
| 20260504130429 | 57 | 108 | 4.3 | 7.8 | 0.00 | 0.00 | 0.00 | 63 | 1015.1 |
| 20260504110311 | 41 | 151 | 0.0 | 0.0 | 0.00 | 0.00 | 0.00 | 95 | 1014.7 |